Location: Cluny
(50.9333°N, 112.8167°W)
Time: 14:46:36
(UTC-06:00)

Amateur Radio Satellites - All Passes

Search period start: 31 October 2014 14:16
Search period end: 01 November 2014 14:16
Location: Cluny, 50.9333°N, 112.8167°W

Satellite Date Start Highest point End Downlink Frequencies (MHz)
Time Altitude Azimuth
KITSAT 1 31 Oct 14:27:46 14:35:16 40° 331° (NNW) 14:42:47 435.175 FM
JAS-1B 31 Oct 14:28:24 14:34:04 68° 257° (WSW) 14:39:55 435.800 - 435.900 CW/SSB
AO-27 31 Oct 14:40:51 14:46:05 86° 73° (ENE) 14:51:22 436.795 MHz FM
Saudisat 1A 31 Oct 14:45:10 14:49:37 88° 230° (SW) 14:54:03 436.775 MHz
Oscar 16 31 Oct 14:52:14 14:56:59 37° 264° (W) 15:01:45 437.025 USB, Beacon 2401.1428
Gurwin Techsat 1B 31 Oct 14:56:44 15:01:59 67° 70° (ENE) 15:07:17 435.225 FM
ISS 31 Oct 15:02:16 15:05:37 86° 7° (N) 15:08:58 145.800 FM
TMSAT-1 31 Oct 15:03:07 15:08:19 58° 69° (ENE) 15:13:32 436.925 FM
JAS-2 31 Oct 15:04:21 15:05:29 10° 33° (NNE) 15:06:39 435.800 - 435.900 CW/SSB, 435.910 FM
SO-50 31 Oct 15:14:52 15:18:14 19° 343° (NNW) 15:21:41 436.795 FM
Uribyol 2 31 Oct 15:25:04 15:30:01 42° 262° (W) 15:35:00 436.500 FM
AO-Echo 31 Oct 15:26:32 15:31:08 35° 265° (W) 15:35:54 ?
ITAMSAT 1 31 Oct 15:33:11 15:38:03 38° 263° (W) 15:42:57 435.822 SSB
Uosat F 31 Oct 15:40:03 15:44:02 24° 58° (ENE) 15:48:03 435.120 FM
Oscar 19 31 Oct 15:46:57 15:49:46 15° 274° (W) 15:52:34 437.125 CW, 437.150 USB
AO-7 31 Oct 15:54:46 16:02:51 61° 61° (ENE) 16:10:58 29.400 - 29.500 MHz
UOSAT-12 31 Oct 15:56:19 16:00:31 31° 328° (NNW) 16:04:46 437.025 FM, 437.400 FM
AO-27 31 Oct 16:23:06 16:26:19 16° 273° (W) 16:29:33 436.795 MHz FM
JAS-1B 31 Oct 16:25:31 16:26:11 10° 279° (W) 16:26:51 435.800 - 435.900 CW/SSB
Saudisat 1A 31 Oct 16:26:06 16:28:33 15° 249° (WSW) 16:31:00 436.775 MHz
KITSAT 1 31 Oct 16:26:20 16:33:03 27° 360° (N) 16:39:46 435.175 FM
Gurwin Techsat 1B 31 Oct 16:38:25 16:42:27 22° 270° (W) 16:46:31 435.225 FM
ISS 31 Oct 16:39:03 16:42:09 36° 209° (SSW) 16:45:15 145.800 FM
JAS-2 31 Oct 16:42:27 16:48:17 33° 56° (NE) 16:54:41 435.800 - 435.900 CW/SSB, 435.910 FM
TMSAT-1 31 Oct 16:44:18 16:48:36 25° 268° (W) 16:52:57 436.925 FM
Hamsat 31 Oct 16:47:34 16:49:29 13° 56° (ENE) 16:51:24 145.90 MHz
SO-50 31 Oct 16:57:30 17:00:31 16° 8° (N) 17:03:34 436.795 FM
Uosat F 31 Oct 17:17:28 17:22:27 62° 258° (WSW) 17:27:30 435.120 FM
UOSAT-12 31 Oct 17:39:03 17:42:04 16° 352° (N) 17:45:05 437.025 FM, 437.400 FM
OPAL 31 Oct 17:43:34 17:46:09 14° 89° (E) 17:48:44 ?
AO-7 31 Oct 17:48:24 17:56:01 40° 263° (W) 18:03:43 29.400 - 29.500 MHz
HO-68 31 Oct 18:16:43 18:17:50 10° 30° (NNE) 18:18:57 435.675 MHz FM
Hamsat 31 Oct 18:20:37 18:24:48 88° 75° (ENE) 18:29:00 145.90 MHz
KITSAT 1 31 Oct 18:23:21 18:30:51 39° 29° (NNE) 18:38:20 435.175 FM
JAS-2 31 Oct 18:26:23 18:32:50 66° 259° (W) 18:40:09 435.800 - 435.900 CW/SSB, 435.910 FM
SO-50 31 Oct 18:38:14 18:42:30 31° 31° (NNE) 18:46:49 436.795 FM
Oscar 10/S400 31 Oct 18:45:33 19:07:57 43° 180° (S) 23:25:45 145.825 - 145.975 CW/USB, Beacon 145.810 USB
SO-67 31 Oct 19:01:07 19:04:12 31° 69° (ENE) 19:07:17 435.3500 MHz FM
UOSAT-12 31 Oct 19:20:32 19:23:56 19° 17° (NNE) 19:27:19 437.025 FM, 437.400 FM
OPAL 31 Oct 19:20:48 19:25:47 88° 108° (ESE) 19:30:45 ?
STRAND 1 31 Oct 19:39:01 19:43:22 27° 93° (E) 19:47:40 ?
RS-15 31 Oct 19:56:06 20:01:22 15° 94° (E) 20:06:37 29.354 - 29.394 USB, Beacon 29.352 USB
HO-68 31 Oct 19:57:15 20:03:25 33° 54° (NE) 20:09:37 435.675 MHz FM
Hamsat 31 Oct 20:00:03 20:01:23 11° 274° (W) 20:02:44 145.90 MHz
JAS-2 31 Oct 20:16:11 20:19:32 14° 282° (WNW) 20:23:04 435.800 - 435.900 CW/SSB, 435.910 FM
SO-50 31 Oct 20:18:40 20:23:29 71° 232° (SW) 20:28:21 436.795 FM
KITSAT 1 31 Oct 20:19:01 20:27:08 85° 234° (SW) 20:35:13 435.175 FM
UKube-1 31 Oct 20:31:17 20:33:09 13° 53° (NE) 20:35:01 145.840 MHz, 145.915 MHz
SO-67 31 Oct 20:34:32 20:37:14 21° 267° (W) 20:39:57 435.3500 MHz FM
UOSAT-12 31 Oct 21:00:33 21:05:10 48° 40° (NE) 21:09:43 437.025 FM, 437.400 FM
OPAL 31 Oct 21:00:47 21:04:04 18° 308° (NW) 21:07:20 ?
Oscar 11 31 Oct 21:04:17 21:07:30 21° 61° (ENE) 21:10:42 145.825 FM, Beacon 2401.500 USB
STRAND 1 31 Oct 21:17:50 21:22:51 52° 292° (WNW) 21:27:49 ?
FUNcube-1 31 Oct 21:22:38 21:25:20 16° 58° (ENE) 21:28:01 145.950 - 145.970 MHz USB
HO-68 31 Oct 21:43:31 21:50:40 70° 255° (WSW) 21:57:53 435.675 MHz FM
RS-15 31 Oct 22:00:29 22:11:05 59° 118° (ESE) 22:21:42 29.354 - 29.394 USB, Beacon 29.352 USB
SO-50 31 Oct 22:01:09 22:03:15 13° 251° (WSW) 22:05:21 436.795 FM
UKube-1 31 Oct 22:04:15 22:08:36 77° 73° (ENE) 22:13:00 145.840 MHz, 145.915 MHz
ZACube-1 31 Oct 22:14:13 22:18:27 42° 68° (ENE) 22:22:37 437.345 MHz
KITSAT 1 31 Oct 22:15:27 22:21:29 24° 256° (WSW) 22:27:30 435.175 FM
Oscar 11 31 Oct 22:39:06 22:43:21 55° 260° (W) 22:47:36 145.825 FM, Beacon 2401.500 USB
UOSAT-12 31 Oct 22:40:56 22:45:14 35° 240° (WSW) 22:49:28 437.025 FM, 437.400 FM
FUNcube-1 31 Oct 22:56:41 23:01:12 81° 256° (WSW) 23:05:38 145.950 - 145.970 MHz USB
MaSat-1 31 Oct 22:58:34 23:02:10 45° 117° (ESE) 23:05:24 437.345 MHz
STRAND 1 31 Oct 22:59:33 23:00:56 11° 313° (NW) 23:02:20 ?
HO-68 31 Oct 23:35:41 23:39:43 16° 276° (W) 23:43:47 435.675 MHz FM
UKube-1 31 Oct 23:42:58 23:45:21 14° 272° (W) 23:47:44 145.840 MHz, 145.915 MHz
ZACube-1 31 Oct 23:51:12 23:55:00 26° 266° (W) 23:58:44 437.345 MHz
RS-15 01 Nov 00:12:49 00:23:35 60° 325° (NW) 00:34:31 29.354 - 29.394 USB, Beacon 29.352 USB
MaSat-1 01 Nov 00:34:54 00:37:41 21° 314° (NW) 00:40:15 437.345 MHz
FUNcube-1 01 Nov 00:37:05 00:38:16 11° 275° (W) 00:39:27 145.950 - 145.970 MHz USB
PCSat 01 Nov 01:59:08 02:02:16 16° 105° (ESE) 02:05:25 145.825 MHz
JAS-1B 01 Nov 02:05:00 02:10:56 28° 92° (E) 02:17:42 435.800 - 435.900 CW/SSB
Oscar 19 01 Nov 02:11:34 02:15:35 23° 91° (E) 02:19:33 437.125 CW, 437.150 USB
RS-15 01 Nov 02:28:23 02:38:31 40° 358° (N) 02:48:53 29.354 - 29.394 USB, Beacon 29.352 USB
AO-27 01 Nov 02:49:31 02:53:29 21° 90° (E) 02:57:24 436.795 MHz FM
Oscar 16 01 Nov 02:58:10 03:03:12 54° 100° (E) 03:08:13 437.025 USB, Beacon 2401.1428
Gurwin Techsat 1B 01 Nov 03:08:44 03:12:21 18° 88° (E) 03:15:57 435.225 FM
TMSAT-1 01 Nov 03:15:00 03:18:09 16° 86° (E) 03:21:17 436.925 FM
Sapphire 01 Nov 03:18:01 03:23:17 55° 119° (ESE) 03:28:36 437.095 MHz 1200 baud AX-25 AFSK
AO-Echo 01 Nov 03:27:51 03:33:07 56° 100° (E) 03:38:19 ?
OPAL 01 Nov 03:28:44 03:29:22 10° 44° (NE) 03:30:01 ?
Uribyol 2 01 Nov 03:32:18 03:37:21 48° 99° (E) 03:42:21 436.500 FM
PCSat 01 Nov 03:39:26 03:44:51 82° 125° (SE) 03:50:19 145.825 MHz
ITAMSAT 1 01 Nov 03:40:24 03:45:32 53° 100° (E) 03:50:36 435.822 SSB
Oscar 19 01 Nov 03:50:17 03:55:20 61° 290° (WNW) 04:00:22 437.125 CW, 437.150 USB
AO-7 01 Nov 03:53:21 03:56:21 12° 80° (E) 03:59:19 29.400 - 29.500 MHz
JAS-1B 01 Nov 03:55:11 04:02:01 75° 290° (WNW) 04:10:13 435.800 - 435.900 CW/SSB
AO-27 01 Nov 04:28:16 04:33:29 67° 290° (WNW) 04:38:39 436.795 MHz FM
Oscar 16 01 Nov 04:38:01 04:42:18 27° 300° (WNW) 04:46:34 437.025 USB, Beacon 2401.1428
RS-15 01 Nov 04:42:52 04:53:40 55° 31° (NNE) 05:04:49 29.354 - 29.394 USB, Beacon 29.352 USB
Gurwin Techsat 1B 01 Nov 04:47:37 04:52:58 79° 288° (WNW) 04:58:16 435.225 FM
TMSAT-1 01 Nov 04:53:29 04:58:51 89° 283° (WNW) 05:04:09 436.925 FM
Sapphire 01 Nov 05:01:58 05:06:58 37° 321° (NW) 05:12:01 437.095 MHz 1200 baud AX-25 AFSK
OPAL 01 Nov 05:02:18 05:07:09 47° 64° (ENE) 05:11:57 ?
AO-Echo 01 Nov 05:07:07 05:11:35 28° 300° (WNW) 05:16:02 ?
Uribyol 2 01 Nov 05:12:08 05:16:39 31° 299° (WNW) 05:21:09 436.500 FM
Uosat F 01 Nov 05:20:19 05:24:41 28° 94° (E) 05:29:00 435.120 FM
ITAMSAT 1 01 Nov 05:20:21 05:24:47 29° 300° (WNW) 05:29:11 435.822 SSB
STRAND 1 01 Nov 05:24:13 05:26:31 13° 50° (NE) 05:28:49 ?
PCSat 01 Nov 05:24:14 05:28:53 28° 327° (NNW) 05:33:35 145.825 MHz
JAS-2 01 Nov 05:30:44 05:36:27 21° 83° (E) 05:42:03 435.800 - 435.900 CW/SSB, 435.910 FM
Oscar 19 01 Nov 05:31:37 05:33:43 13° 311° (NW) 05:35:49 437.125 CW, 437.150 USB
AO-7 01 Nov 05:42:59 05:51:09 55° 102° (ESE) 05:59:17 29.400 - 29.500 MHz
JAS-1B 01 Nov 05:47:08 05:51:51 21° 309° (NW) 05:57:06 435.800 - 435.900 CW/SSB
Hamsat 01 Nov 06:03:08 06:04:33 11° 86° (E) 06:05:59 145.90 MHz
AO-27 01 Nov 06:09:28 06:12:05 14° 310° (NW) 06:14:40 436.795 MHz FM
Gurwin Techsat 1B 01 Nov 06:28:56 06:32:09 16° 308° (NW) 06:35:21 435.225 FM
TMSAT-1 01 Nov 06:34:33 06:38:05 18° 306° (NW) 06:41:37 436.925 FM
Saudisat 1A 01 Nov 06:35:15 06:39:23 42° 122° (ESE) 06:43:34 436.775 MHz
OPAL 01 Nov 06:41:46 06:46:13 30° 263° (W) 06:50:38 ?
Sapphire 01 Nov 06:48:35 06:51:59 17° 346° (NNW) 06:55:25 437.095 MHz 1200 baud AX-25 AFSK
RS-15 01 Nov 06:55:39 07:06:38 69° 238° (WSW) 07:18:04 29.354 - 29.394 USB, Beacon 29.352 USB
Uosat F 01 Nov 06:58:50 07:03:41 48° 293° (WNW) 07:08:31 435.120 FM
STRAND 1 01 Nov 06:59:41 07:04:45 63° 70° (ENE) 07:09:52 ?
MaSat-1 01 Nov 07:03:05 07:05:21 25° 48° (NE) 07:07:29 437.345 MHz
PCSat 01 Nov 07:11:04 07:14:09 15° 352° (N) 07:17:15 145.825 MHz
JAS-2 01 Nov 07:14:40 07:22:35 81° 104° (ESE) 07:30:20 435.800 - 435.900 CW/SSB, 435.910 FM
AO-7 01 Nov 07:36:04 07:43:51 46° 304° (NW) 07:51:39 29.400 - 29.500 MHz
Hamsat 01 Nov 07:36:54 07:41:08 89° 286° (WNW) 07:45:24 145.90 MHz
SO-67 01 Nov 07:52:23 07:54:55 19° 92° (E) 07:57:27 435.3500 MHz FM
Saudisat 1A 01 Nov 08:14:54 08:19:01 38° 323° (NW) 08:23:11 436.775 MHz
Sapphire 01 Nov 08:34:21 08:37:39 16° 12° (NNE) 08:40:57 437.095 MHz 1200 baud AX-25 AFSK
MaSat-1 01 Nov 08:38:58 08:40:29 15° 251° (WSW) 08:41:57 437.345 MHz
STRAND 1 01 Nov 08:40:25 08:44:23 22° 269° (W) 08:48:23 ?
PCSat 01 Nov 08:56:05 08:59:47 18° 19° (NNE) 09:03:27 145.825 MHz
JAS-2 01 Nov 09:00:19 09:06:54 31° 305° (NW) 09:13:28 435.800 - 435.900 CW/SSB, 435.910 FM
HO-68 01 Nov 09:06:50 09:11:32 18° 86° (E) 09:16:13 435.675 MHz FM
RS-15 01 Nov 09:09:36 09:16:55 20° 262° (W) 09:24:25 29.354 - 29.394 USB, Beacon 29.352 USB
Hamsat 01 Nov 09:14:27 09:16:28 13° 303° (WNW) 09:18:30 145.90 MHz
SO-67 01 Nov 09:24:50 09:28:02 35° 290° (WNW) 09:31:12 435.3500 MHz FM
AO-7 01 Nov 09:29:57 09:34:42 17° 328° (NNW) 09:39:27 29.400 - 29.500 MHz
Saudisat 1A 01 Nov 09:56:58 09:59:45 16° 346° (NNW) 10:02:33 436.775 MHz
Sapphire 01 Nov 10:17:49 10:22:45 34° 37° (NE) 10:27:40 437.095 MHz 1200 baud AX-25 AFSK
Oscar 11 01 Nov 10:22:15 10:25:22 19° 91° (E) 10:28:29 145.825 FM, Beacon 2401.500 USB
PCSat 01 Nov 10:39:21 10:44:35 45° 43° (NE) 10:49:47 145.825 MHz
SO-50 01 Nov 10:41:53 10:42:59 11° 107° (ESE) 10:44:05 436.795 FM
FUNcube-1 01 Nov 10:42:17 10:44:22 13° 87° (E) 10:46:27 145.950 - 145.970 MHz USB
JAS-2 01 Nov 10:48:39 10:49:37 10° 328° (NNW) 10:50:35 435.800 - 435.900 CW/SSB, 435.910 FM
HO-68 01 Nov 10:53:10 11:00:25 79° 107° (ESE) 11:07:37 435.675 MHz FM
KITSAT 1 01 Nov 10:53:25 11:00:21 33° 109° (ESE) 11:07:18 435.175 FM
ISS 01 Nov 11:00:34 11:03:17 24° 145° (SE) 11:06:01 145.800 FM
UKube-1 01 Nov 11:23:26 11:27:49 70° 103° (ESE) 11:32:10 145.840 MHz, 145.915 MHz
ZACube-1 01 Nov 11:34:33 11:38:35 42° 98° (E) 11:42:32 437.345 MHz
Saudisat 1A 01 Nov 11:38:22 11:41:00 15° 11° (N) 11:43:38 436.775 MHz
Oscar 11 01 Nov 11:57:40 12:01:54 55° 289° (WNW) 12:06:06 145.825 FM, Beacon 2401.500 USB
Oscar 19 01 Nov 11:58:28 11:59:51 11° 48° (NE) 12:01:14 437.125 CW, 437.150 USB
Sapphire 01 Nov 12:01:10 12:06:34 63° 239° (WSW) 12:11:55 437.095 MHz 1200 baud AX-25 AFSK
FUNcube-1 01 Nov 12:17:06 12:21:20 75° 286° (WNW) 12:25:28 145.950 - 145.970 MHz USB
SO-50 01 Nov 12:18:07 12:22:37 67° 127° (SE) 12:27:17 436.795 FM
PCSat 01 Nov 12:22:56 12:28:01 42° 244° (WSW) 12:33:05 145.825 MHz
ISS 01 Nov 12:36:19 12:39:39 78° 164° (SSE) 12:43:00 145.800 FM
AO-27 01 Nov 12:37:21 12:38:56 11° 47° (NE) 12:40:30 436.795 MHz FM
HO-68 01 Nov 12:41:32 12:47:31 29° 308° (NW) 12:53:28 435.675 MHz FM
Oscar 16 01 Nov 12:42:30 12:46:29 23° 58° (ENE) 12:50:28 437.025 USB, Beacon 2401.1428
KITSAT 1 01 Nov 12:47:03 12:55:09 77° 312° (NW) 13:03:17 435.175 FM
UOSAT-12 01 Nov 12:57:09 13:00:43 22° 114° (ESE) 13:04:21 437.025 FM, 437.400 FM
JAS-1B 01 Nov 12:57:45 13:02:38 31° 58° (ENE) 13:07:45 435.800 - 435.900 CW/SSB
UKube-1 01 Nov 13:00:37 13:03:32 18° 302° (WNW) 13:06:28 145.840 MHz, 145.915 MHz
AO-Echo 01 Nov 13:08:45 13:12:33 22° 57° (ENE) 13:16:26 ?
AO-7 01 Nov 13:09:54 13:13:14 13° 24° (NNE) 13:16:33 29.400 - 29.500 MHz
ZACube-1 01 Nov 13:11:23 13:14:48 24° 297° (WNW) 13:18:10 437.345 MHz
Uribyol 2 01 Nov 13:17:32 13:21:29 22° 57° (ENE) 13:25:27 436.500 FM
Saudisat 1A 01 Nov 13:17:48 13:21:50 33° 34° (NE) 13:25:51 436.775 MHz
ITAMSAT 1 01 Nov 13:25:35 13:29:42 24° 58° (ENE) 13:33:50 435.822 SSB
Oscar 19 01 Nov 13:33:09 13:38:07 53° 68° (ENE) 13:43:07 437.125 CW, 437.150 USB
Sapphire 01 Nov 13:47:17 13:48:55 11° 259° (WSW) 13:50:34 437.095 MHz 1200 baud AX-25 AFSK
FUNcube-1 01 Nov 13:55:39 13:56:57 11° 306° (NW) 13:58:15 145.950 - 145.970 MHz USB
SO-50 01 Nov 13:59:28 14:03:34 30° 329° (NNW) 14:07:46 436.795 FM
